Sauk Centre, MN

7:48 AM CDT on May 27, 2017 (GMT -0500)
Sauk Centre

Weather History for KD39 - October, 2013

Change the Weather History Date:

Monday, October 14, 2013

  Actual Average (KGHW) Record (KGHW)
Temperature  
Mean Temperature 43 °F -  
Max Temperature 45 °F 60 °F 84 °F (1962)
Min Temperature 41 °F 35 °F 19 °F (1986)
Degree Days  
Heating Degree Days 22    
Moisture  
Dew Point 39 °F    
Average Humidity 85    
Maximum Humidity 93    
Minimum Humidity 72    
Precipitation  
Precipitation 0.36 in - - ()
Sea Level Pressure  
Sea Level Pressure 30.19 in    
Wind  
Wind Speed 7 mph (East)    
Max Wind Speed 20 mph    
Max Gust Speed 29 mph    
Visibility 10 miles    
Events Rain    
Averages and records for this station are not official NWS values.
T = Trace of Precipitation, MM = Missing Value Source: NWS Daily Summary

Daily Weather History Graph

Daily Weather History Graph

Search for Another Location

Airport or City:

Trip Planner

Search our weather history database for the weather conditions in past years. The results will help you decide how hot, cold, wet, or windy it might be!

Date:

Astronomy

Oct. 14, 2013 Rise Set
Actual Time 7:35 AM CDT 6:35 PM CDT
Civil Twilight 7:05 AM CDT 7:05 PM CDT
Nautical Twilight 6:30 AM CDT 7:39 PM CDT
Astronomical Twilight 5:56 AM CDT 8:13 PM CDT
Moon 4:16 PM CDT (10/14) 2:39 AM CDT (10/14)
Length of Visible Light 11h 59m
Length of Day
10h 59m
Waxing Gibbous, 79% of the Moon is Illuminated
Oct 14
Waxing Gibbous
Oct 18
Full
Oct 26
Last Quarter
Nov 3
New
Nov 9
First Quarter

Hourly Weather History & Observations

Time (CDT) Temp. Windchill Dew Point Humidity Pressure Visibility Wind Dir Wind Speed Gust Speed Precip Events Conditions
12:10 AM 41.4 °F - 37.2 °F 85% 30.37 in 7.0 mi Calm Calm - N/A   Scattered Clouds
12:31 AM 41.5 °F 39.6 °F 37.4 °F 85% 30.37 in 10.0 mi ESE 3.5 mph - N/A   Clear
12:50 AM 41.7 °F 39.8 °F 37.2 °F 84% 30.37 in 10.0 mi ESE 3.5 mph - N/A   Scattered Clouds
1:11 AM 41.4 °F - 37.9 °F 88% 30.38 in 10.0 mi Calm Calm - N/A   Overcast
1:31 AM 43.7 °F 41.1 °F 36.7 °F 76% 30.38 in 10.0 mi East 4.6 mph - N/A   Overcast
1:50 AM 43.5 °F 41.9 °F 36.9 °F 77% 30.38 in 10.0 mi East 3.5 mph - N/A   Overcast
2:11 AM 44.8 °F 43.3 °F 36.3 °F 72% 30.38 in 10.0 mi East 3.5 mph - N/A   Overcast
2:31 AM 44.2 °F 41.8 °F 36.5 °F 74% 30.37 in 10.0 mi East 4.6 mph - N/A   Overcast
2:51 AM 43.9 °F - 36.7 °F 76% 30.37 in 10.0 mi Calm Calm - N/A   Scattered Clouds
3:11 AM 43.2 °F - 36.5 °F 77% 30.36 in 10.0 mi Calm Calm - N/A   Clear
3:31 AM 43.3 °F - 36.0 °F 75% 30.36 in 10.0 mi Calm Calm - N/A   Scattered Clouds
3:51 AM 43.5 °F 40.1 °F 36.1 °F 75% 30.36 in 10.0 mi East 5.8 mph - N/A   Overcast
4:11 AM 43.9 °F 39.3 °F 36.7 °F 76% 30.34 in 10.0 mi East 8.1 mph - N/A   Mostly Cloudy
4:30 AM 43.9 °F 39.9 °F 36.7 °F 76% 30.34 in 10.0 mi East 6.9 mph - N/A   Mostly Cloudy
4:51 AM 43.9 °F 39.9 °F 36.9 °F 76% 30.33 in 10.0 mi East 6.9 mph - N/A   Mostly Cloudy
5:11 AM 43.7 °F 40.3 °F 36.7 °F 76% 30.33 in 10.0 mi East 5.8 mph - N/A   Scattered Clouds
5:30 AM 42.8 °F 38.0 °F 36.9 °F 80% 30.33 in 10.0 mi East 8.1 mph - N/A   Clear
5:51 AM 42.8 °F 37.5 °F 36.7 °F 79% 30.32 in 10.0 mi East 9.2 mph - N/A   Clear
6:11 AM 42.8 °F 38.6 °F 36.7 °F 79% 30.33 in 10.0 mi East 6.9 mph - N/A   Clear
6:31 AM 42.4 °F 38.8 °F 36.7 °F 80% 30.32 in 10.0 mi East 5.8 mph - N/A   Clear
6:51 AM 42.4 °F 38.8 °F 36.5 °F 79% 30.32 in 10.0 mi East 5.8 mph - N/A   Clear
7:10 AM 42.3 °F 38.6 °F 36.7 °F 81% 30.32 in 10.0 mi East 5.8 mph - N/A   Clear
7:31 AM 42.1 °F 38.4 °F 37.0 °F 82% 30.32 in 10.0 mi East 5.8 mph - N/A   Scattered Clouds
7:51 AM 42.1 °F 37.7 °F 36.9 °F 82% 30.31 in 10.0 mi East 6.9 mph - N/A   Mostly Cloudy
8:11 AM 42.1 °F 37.7 °F 36.9 °F 82% 30.30 in 10.0 mi East 6.9 mph - N/A   Scattered Clouds
8:31 AM 42.8 °F 38.6 °F 36.9 °F 80% 30.31 in 10.0 mi East 6.9 mph - N/A   Overcast
8:51 AM 43.2 °F 39.7 °F 37.0 °F 79% 30.31 in 10.0 mi ESE 5.8 mph - N/A   Overcast
9:11 AM 43.7 °F 39.7 °F 37.6 °F 79% 30.32 in 10.0 mi ESE 6.9 mph - N/A Rain Light Rain
9:30 AM 43.3 °F 39.2 °F 38.1 °F 82% 30.33 in 10.0 mi ESE 6.9 mph - N/A Rain Light Rain
9:51 AM 43.2 °F 39.0 °F 39.0 °F 85% 30.33 in 10.0 mi ESE 6.9 mph - N/A Rain Light Rain
10:30 AM 43.0 °F 37.7 °F 39.6 °F 88% 30.30 in 10.0 mi East 9.2 mph - 0.01 in Rain Light Rain
10:51 AM 43.0 °F 37.2 °F 40.1 °F 90% 30.27 in 10.0 mi East 10.4 mph - 0.02 in Rain Light Rain
11:11 AM 43.7 °F 38.1 °F 40.3 °F 88% 30.26 in 10.0 mi East 10.4 mph - N/A   Overcast
11:31 AM 43.9 °F 37.9 °F 40.6 °F 88% 30.25 in 10.0 mi East 11.5 mph - N/A   Light Drizzle
11:51 AM 44.1 °F 38.1 °F 40.6 °F 88% 30.24 in 10.0 mi East 11.5 mph - N/A Rain Light Rain
12:11 PM 44.1 °F 37.7 °F 41.0 °F 89% 30.24 in 10.0 mi East 12.7 mph 17.3 mph N/A Rain Light Rain
12:31 PM 44.1 °F 37.7 °F 40.6 °F 88% 30.22 in 10.0 mi East 12.7 mph 17.3 mph N/A   Overcast
12:51 PM 44.6 °F 38.1 °F 40.3 °F 85% 30.20 in 10.0 mi East 13.8 mph 19.6 mph N/A   Overcast
1:11 PM 44.6 °F 38.4 °F 40.5 °F 85% 30.19 in 10.0 mi East 12.7 mph - N/A   Overcast
1:30 PM 44.6 °F 38.8 °F 40.3 °F 85% 30.17 in 10.0 mi East 11.5 mph - N/A Rain Light Rain
1:51 PM 44.8 °F 39.0 °F 40.1 °F 84% 30.16 in 10.0 mi East 11.5 mph 17.3 mph N/A   Overcast
2:11 PM 45.0 °F 39.7 °F 40.1 °F 83% 30.15 in 10.0 mi East 10.4 mph 17.3 mph N/A   Overcast
2:31 PM 45.1 °F 38.8 °F 40.1 °F 82% 30.13 in 10.0 mi East 13.8 mph 17.3 mph N/A   Overcast
2:51 PM 45.0 °F 38.9 °F 40.8 °F 85% 30.13 in 10.0 mi East 12.7 mph 18.4 mph N/A Rain Light Rain
3:11 PM 45.5 °F 40.3 °F 40.6 °F 83% 30.14 in 10.0 mi East 10.4 mph - N/A   Overcast
3:31 PM 45.7 °F 40.6 °F 40.6 °F 83% 30.13 in 10.0 mi East 10.4 mph - N/A   Light Drizzle
3:51 PM 45.3 °F 39.0 °F 41.2 °F 85% 30.12 in 10.0 mi East 13.8 mph 18.4 mph N/A Rain Light Rain
4:10 PM 44.8 °F 39.0 °F 41.0 °F 87% 30.11 in 10.0 mi ENE 11.5 mph - 0.01 in Rain Rain
4:31 PM 44.6 °F 38.1 °F 41.4 °F 88% 30.10 in 10.0 mi ENE 13.8 mph - 0.03 in Rain Rain
4:51 PM 44.6 °F 40.7 °F 41.5 °F 89% 30.10 in 10.0 mi East 6.9 mph - 0.04 in Rain Light Rain
5:11 PM 44.6 °F 39.7 °F 41.7 °F 90% 30.10 in 10.0 mi East 9.2 mph - N/A   Light Drizzle
5:31 PM 44.6 °F 40.2 °F 41.4 °F 88% 30.11 in 10.0 mi East 8.1 mph - N/A   Overcast
5:50 PM 44.6 °F 39.2 °F 41.2 °F 88% 30.10 in 10.0 mi East 10.4 mph - N/A   Overcast
6:11 PM 44.1 °F 37.4 °F 41.2 °F 90% 30.07 in 10.0 mi ENE 13.8 mph - N/A Rain Rain
6:30 PM 43.9 °F 36.8 °F 41.0 °F 90% 30.05 in 10.0 mi ENE 15.0 mph 20.7 mph 0.01 in Rain Light Rain
6:51 PM 44.1 °F 37.1 °F 41.0 °F 89% 30.06 in 10.0 mi ENE 15.0 mph 19.6 mph 0.03 in Rain Light Rain
7:11 PM 43.9 °F 37.5 °F 41.2 °F 90% 30.06 in 10.0 mi ENE 12.7 mph 18.4 mph 0.02 in Rain Light Rain
7:31 PM 43.7 °F 36.3 °F 41.2 °F 91% 30.04 in 10.0 mi ENE 16.1 mph 20.7 mph 0.06 in Rain Light Rain
7:51 PM 43.7 °F 36.0 °F 41.2 °F 91% 30.02 in 10.0 mi East 17.3 mph 21.9 mph 0.10 in Rain Rain
8:11 PM 43.7 °F 35.4 °F 41.2 °F 91% 29.99 in 7.0 mi ENE 19.6 mph 28.8 mph 0.02 in Rain Light Rain
8:31 PM 44.1 °F 35.9 °F 41.2 °F 90% 29.99 in 10.0 mi East 19.6 mph 27.6 mph 0.03 in Rain Light Rain
8:51 PM 44.1 °F 35.9 °F 41.2 °F 90% 29.99 in 10.0 mi ENE 19.6 mph 28.8 mph 0.06 in Rain Rain
9:10 PM 44.1 °F 37.1 °F 41.4 °F 90% 29.99 in 10.0 mi East 15.0 mph - 0.01 in Rain Light Rain
9:31 PM 44.2 °F 37.0 °F 41.9 °F 91% 29.99 in 10.0 mi East 16.1 mph 20.7 mph 0.03 in Rain Light Rain
9:51 PM 44.6 °F 36.9 °F 41.9 °F 90% 29.97 in 10.0 mi ENE 18.4 mph 25.3 mph 0.05 in Rain Light Rain
10:11 PM 44.6 °F 36.9 °F 42.3 °F 91% 29.96 in 7.0 mi ENE 18.4 mph 26.5 mph 0.01 in Rain Light Rain
10:31 PM 44.6 °F 36.6 °F 42.6 °F 93% 29.96 in 10.0 mi East 19.6 mph - 0.02 in Rain Light Rain
10:51 PM 44.6 °F 37.2 °F 42.8 °F 93% 29.93 in 7.0 mi East 17.3 mph 25.3 mph 0.04 in Rain Light Rain
11:11 PM 44.6 °F 36.9 °F 42.8 °F 93% 29.93 in 10.0 mi East 18.4 mph 27.6 mph 0.01 in Rain Light Rain
11:31 PM 45.0 °F 37.6 °F 43.2 °F 93% 29.92 in 7.0 mi East 17.3 mph 27.6 mph 0.02 in Rain Light Rain
11:50 PM 45.1 °F 38.8 °F 43.3 °F 93% 29.91 in 10.0 mi ENE 13.8 mph 24.2 mph 0.02 in Rain Light Rain
11:56 PM 45.1 °F 37.3 °F 43.3 °F 93% 29.90 in 10.0 mi ENE 19.6 mph 24.2 mph 0.02 in Rain Light Rain